Content
SEND FEEDBACK

Daily
Averages
Monthly
Summary
United Kingdom

LONDON, ENGLAND


Home > Europe > United Kingdom > England
Elevation: 61 meters     Latitude: 51 09N     Longitude: 000 11W

WEATHER
 
SELECT A DAY
Number of Records: 292,605;   Date Range: 7/1/96 - 7/20/14
 
SHARE

PRINT THIS DATA

[ ← Previous Day ]
WEATHER ALMANAC - 1 SEPTEMBER, 2013
[ Next Day → ]
[ °F ]   °C
Weather ElementAverageHighLow
Temperature14.6 °C20 °C (2:50 pm)8 °C (6:20 am)
Dewpoint7.4 °C10 °C (6:50 pm)5 °C (12:50 am)
Humidity63.9 %87 % (6:20 am)43 % (2:50 pm)
Barometer1029.8 hPa1031.2 hPa (7:20 am)1028.1 hPa (5:20 pm)
Wind Speed10.1 km/h18.5 km/h (2:50 pm)
Weather ElementAverage
Wind DirectionSW (227.9 °)

Weather ElementTotal
Precipitation---
Heating Degree Days4.3 (Base 18.3)
Growing Degree Days4 (Base 10)
Averaged from 47 records on 1 September, 2013
WEATHER CONDITIONS BREAKOUT
WIND DIRECTION BREAKOUT
WEATHER BY HOUR - 1 SEPTEMBER, 2013
[ °F ]   °C
Local TimeTemperatureDewpointHumidityBarometerVisibilityWind DirectionWind SpeedGust SpeedPrecipitationEventsConditions
12:50 AM11 °C5 °C67 %1030.1 hPaVariable5.6 km/hClear
1:20 AM12 °C5 °C62 %1030.1 hPaNNW (330°)7.4 km/hClear
1:50 AM12 °C5 °C62 %1030.1 hPaNW (320°)7.4 km/hClear
2:20 AM11 °C5 °C67 %1030.1 hPaVariable5.6 km/hClear
2:50 AM10 °C6 °C76 %1030.1 hPaVariable5.6 km/hClear
3:20 AM10 °C6 °C76 %1030.1 hPaWSW (250°)5.6 km/hClear
3:50 AM10 °C5 °C71 %1030.1 hPaVariable5.6 km/hClear
4:20 AM9 °C5 °C76 %1030.1 hPaWest (260°)5.6 km/hClear
4:50 AM9 °C6 °C82 %1030.1 hPaVariable5.6 km/hClear
5:20 AM9 °C6 °C82 %1030.1 hPaSSW (210°)3.7 km/hClear
5:50 AM9 °C6 °C82 %1030.1 hPaWSW (240°)3.7 km/hClear
6:20 AM8 °C6 °C87 %1030.1 hPaVariable3.7 km/hClear
6:50 AM8 °C6 °C87 %1030.1 hPaSouth (190°)5.6 km/hClear
7:20 AM9 °C6 °C82 %1031.2 hPaSSW (200°)5.6 km/hClear
7:50 AM9 °C6 °C82 %1031.2 hPaSW (230°)7.4 km/hClear
8:20 AM11 °C7 °C76 %1031.2 hPaSW (220°)3.7 km/hClear
8:50 AM12 °C7 °C72 %1031.2 hPaSW (230°)5.6 km/hClear
9:20 AM14 °C8 °C67 %1031.2 hPaNW (310°)9.3 km/hClear
9:50 AM14 °C8 °C67 %1031.2 hPaWNW (300°)7.4 km/hClear
10:20 AM15 °C8 °C63 %1031.2 hPaNNW (330°)11.1 km/hClear
10:50 AM17 °C8 °C55 %1031.2 hPaWNW (300°)11.1 km/hClear
11:20 AM16 °C7 °C55 %1031.2 hPaNW (310°)13 km/hClear
11:50 AM17 °C7 °C52 %1031.2 hPaWest (270°)16.7 km/hClear
12:20 PM18 °C8 °C52 %1030.1 hPaWest (260°)13 km/hClear
12:50 PM18 °C8 °C52 %1030.1 hPaWest (270°)16.7 km/hClear
1:20 PM18 °C7 °C49 %1030.1 hPaWest (280°)14.8 km/hClear
1:50 PM19 °C8 °C49 %1030.1 hPaWNW (290°)13 km/hClear
2:20 PM19 °C8 °C49 %1030.1 hPaWNW (290°)14.8 km/hClear
2:50 PM20 °C7 °C43 %1029.1 hPaWest (270°)18.5 km/hClear
3:20 PM19 °C8 °C49 %1029.1 hPaWest (280°)18.5 km/hClear
3:50 PM19 °C8 °C49 %1029.1 hPaWest (260°)16.7 km/hClear
4:20 PM19 °C8 °C49 %1029.1 hPaWSW (240°)13 km/hClear
4:50 PM19 °C9 °C52 %1029.1 hPaWest (260°)14.8 km/hClear
5:20 PM20 °C9 °C49 %1028.1 hPaWSW (240°)16.7 km/hClear
5:50 PM19 °C9 °C52 %1028.1 hPaSW (230°)11.1 km/hClear
6:20 PM19 °C9 °C52 %1028.1 hPaWSW (240°)11.1 km/hClear
6:50 PM19 °C10 °C56 %1028.1 hPaWSW (240°)9.3 km/hClear
7:20 PM18 °C10 °C59 %1028.1 hPaWSW (240°)9.3 km/hClear
7:50 PM18 °C9 °C56 %1028.1 hPaWSW (250°)13 km/hClear
8:20 PM17 °C9 °C59 %1028.1 hPaWSW (250°)7.4 km/hClear
8:50 PM16 °C9 °C63 %1028.1 hPaWSW (250°)11.1 km/hClear
9:20 PM16 °C9 °C63 %1028.1 hPaWSW (250°)9.3 km/hClear
9:50 PM16 °C9 °C63 %1028.1 hPaWest (280°)13 km/hClear
10:20 PM15 °C9 °C67 %1028.1 hPaWSW (250°)13 km/hClear
10:50 PM14 °C9 °C72 %1028.1 hPaWSW (250°)11.1 km/hClear
11:20 PM14 °C9 °C72 %1028.1 hPaWest (280°)11.1 km/hClear
11:50 PM13 °C9 °C77 %1028.1 hPaWest (260°)11.1 km/hClear
Hourly data recorded from EGKK, located 0 kilometers away from London, England







STORIES FROM OUR PARTNERS